User: anonymous   Login
Location: Lourdes
(43.1000°N, 0.0500°W)
Time: 10:51:50
(UTC+00:00)
Language:

BREEZE-M DEB (TANK) - Orbit

View from above orbital plane
View from above orbital plane
View from above satellite
View from above satellite

Ground track
Ground track

The orbit data is extracted from the following two-line orbital elements,

1 35875U 09050C   21063.75033619  .00002461  00000-0  84544-3 0  9999
2 35875  49.3128 221.3368 5991650 119.5579 312.6602  4.02032536165528
Epoch (UTC): 04 March 2021 18:00:29
Eccentricity: 0.5991650
inclination: 49.3128°
perigee height: 318 km
apogee height: 20338 km
right ascension of ascending node: 221.3368°
argument of perigee: 119.5579°
revolutions per day: 4.02032536
mean anomaly at epoch: 312.6602°
orbit number at epoch: 16552

The dashed part of the orbit path shows where the satellite is in the earth's shadow,  

DLR